This is the latest recevied weather packets stored in our database for station/object WA1TYB-13. If no packets are shown the sender has not sent any weather packets the latest 10 day(s).
| Time | Temp. | Humidity | Pressure | Rain* | Wind** | Luminosity | Snow |
|---|---|---|---|---|---|---|---|
| 1777789275 | 9.44° C | 64% | 1017.6 hPa | 0 mm | - | 0 W/m² | - |
| 1777788972 | 8.89° C | 63% | 1017.6 hPa | 0 mm | - | 0 W/m² | - |
| 1777788668 | 8.89° C | 61% | 1017.9 hPa | 0 mm | - | 0 W/m² | - |
| 1777788363 | 8.89° C | 61% | 1017.5 hPa | 0 mm | - | 0 W/m² | - |
| 1777788058 | 8.89° C | 61% | 1017.6 hPa | 0 mm | - | 0 W/m² | - |
| 1777787754 | 8.89° C | 60% | 1017.6 hPa | 0 mm | - | 0 W/m² | - |
| 1777787450 | 8.89° C | 60% | 1017.5 hPa | 0 mm | - | 0 W/m² | - |
| 1777787145 | 9.44° C | 59% | 1017.7 hPa | 0 mm | - | 0 W/m² | - |
| 1777786843 | 9.44° C | 59% | 1017.4 hPa | 0 mm | - | 0 W/m² | - |
| 1777786541 | 9.44° C | 58% | 1017.4 hPa | 0 mm | - | 0 W/m² | - |
| 1777786239 | 9.44° C | 59% | 1017.2 hPa | 0 mm | - | 0 W/m² | - |
| 1777785935 | 9.44° C | 58% | 1017.4 hPa | 0 mm | - | 0 W/m² | - |
| 1777785631 | 9.44° C | 59% | 1017.4 hPa | 0 mm | - | 0 W/m² | - |
| 1777785327 | 10° C | 58% | 1017.5 hPa | 0 mm | - | 0 W/m² | - |
| 1777785025 | 9.44° C | 58% | 1017.2 hPa | 0 mm | - | 0 W/m² | - |
| 1777784720 | 10° C | 57% | 1017.2 hPa | 0 mm | - | 0 W/m² | - |
| 1777784418 | 10.56° C | 55% | 1017.2 hPa | 0 mm | - | 0 W/m² | - |
| 1777784115 | 10.56° C | 55% | 1017.4 hPa | 0 mm | - | 0 W/m² | - |
| 1777783812 | 10.56° C | 55% | 1017.4 hPa | 0 mm | - | 0 W/m² | - |
| 1777783509 | 10.56° C | 56% | 1017.2 hPa | 0 mm | - | 0 W/m² | - |
| 1777783207 | 10.56° C | 55% | 1017.5 hPa | 0 mm | - | 0 W/m² | - |
| 1777782903 | 11.11° C | 53% | 1017.2 hPa | 0 mm | - | 0 W/m² | - |
| 1777782599 | 12.22° C | 50% | 1017.4 hPa | 0 mm | - | 0 W/m² | - |
| 1777782296 | 11.67° C | 50% | 1017.2 hPa | 0 mm | - | 0 W/m² | - |
| 1777781992 | 11.67° C | 50% | 1017.5 hPa | 0 mm | - | 0 W/m² | - |
* Rain latest hour (hover to see other rain measurements)
** Current wind speed in m/s (hover to see current wind gust speed)